����,���ϕ���(m/s),���ϕ���,�ő�u�ԕ���(m/s),�ő啗��������,�C��(��),���x(%),10���Ԉړ��ώZ�J��(mm),1���Ԉړ��ώZ�J��(mm),���J��(mm),�݌v�J��(mm)
2021-01-11T00:00:00+09:00,1.1,��,2.8,���쐼,-0.6,60.2,0,0,0,0
2021-01-11T00:01:00+09:00,0.9,��,2.8,���쐼,-0.8,60.2,0,0,0,0
2021-01-11T00:02:00+09:00,0.9,��쓌,2.8,���쐼,-1,60.5,0,0,0,0
2021-01-11T00:03:00+09:00,0.8,�쓌,2.7,�쐼,-1.2,61.2,0,0,0,0
2021-01-11T00:04:00+09:00,0.7,���쓌,1.5,��쐼,-1.3,62.5,0,0,0,0
2021-01-11T00:05:00+09:00,0.7,���쓌,1.5,��쐼,-1.4,63.3,0,0,0,0
2021-01-11T00:06:00+09:00,0.7,��,1.4,�k��,-1.8,62.9,0,0,0,0
2021-01-11T00:07:00+09:00,0.7,��,1.4,�k��,-1.5,63.8,0,0,0,0
2021-01-11T00:08:00+09:00,0.7,���k��,1.4,�k��,-1.4,64.9,0,0,0,0
2021-01-11T00:09:00+09:00,0.8,���k��,1.5,���k��,-1.4,64.3,0,0,0,0
2021-01-11T00:10:00+09:00,0.9,���k��,1.7,���k��,-1.6,63.7,0,0,0,0
2021-01-11T00:11:00+09:00,1,���k��,1.7,���k��,-1.8,64.4,0,0,0,0
2021-01-11T00:12:00+09:00,1,���k��,1.7,���k��,-1.7,64.8,0,0,0,0
2021-01-11T00:13:00+09:00,1,���k��,1.7,���k��,-1.9,65.6,0,0,0,0
2021-01-11T00:14:00+09:00,1,���k��,1.7,���k��,-1.7,66.2,0,0,0,0
2021-01-11T00:15:00+09:00,1.1,���k��,1.9,�k��,-1.7,66.2,0,0,0,0
2021-01-11T00:16:00+09:00,1.1,���k��,2,�k��,-1.7,65.9,0,0,0,0
2021-01-11T00:17:00+09:00,1.1,���k��,2,�k��,-1.7,65.8,0,0,0,0
2021-01-11T00:18:00+09:00,1.2,���k��,2,�k��,-1.8,65.7,0,0,0,0
2021-01-11T00:19:00+09:00,1.3,���k��,2,�k��,-1.9,65.3,0,0,0,0
2021-01-11T00:20:00+09:00,1.3,���k��,2,�k��,-1.8,66.3,0,0,0,0
2021-01-11T00:21:00+09:00,1.2,�k��,2,�k��,-1.8,66.3,0,0,0,0
2021-01-11T00:22:00+09:00,1.3,�k��,2,�k��,-1.8,65.8,0,0,0,0
2021-01-11T00:23:00+09:00,1.3,�k��,2,�k��,-1.7,66.8,0,0,0,0
2021-01-11T00:24:00+09:00,1.3,�k��,2,�k��,-1.8,66.2,0,0,0,0
2021-01-11T00:25:00+09:00,1.3,���k��,2,�k��,-1.8,66.1,0,0,0,0
2021-01-11T00:26:00+09:00,1.3,���k��,1.9,���k��,-1.9,66.8,0,0,0,0
2021-01-11T00:27:00+09:00,1.3,���k��,1.9,���k��,-1.9,67,0,0,0,0
2021-01-11T00:28:00+09:00,1.3,���k��,1.9,���k��,-1.9,67.5,0,0,0,0
2021-01-11T00:29:00+09:00,1.2,���k��,1.9,���k��,-1.8,67.9,0,0,0,0
2021-01-11T00:30:00+09:00,1.2,���k��,1.9,���k��,-1.8,68.3,0,0,0,0
2021-01-11T00:31:00+09:00,1.2,���k��,1.9,���k��,-1.9,68.1,0,0,0,0
2021-01-11T00:32:00+09:00,1.2,���k��,1.9,���k��,-1.9,68.6,0,0,0,0
2021-01-11T00:33:00+09:00,1.1,���k��,1.9,���k��,-1.8,69,0,0,0,0
2021-01-11T00:34:00+09:00,1,���k��,1.6,��,-1.7,69.3,0,0,0,0
2021-01-11T00:35:00+09:00,0.9,���k��,1.6,��,-1.6,69.2,0,0,0,0
2021-01-11T00:36:00+09:00,0.9,�k��,1.6,��,-1.8,67.9,0,0,0,0
2021-01-11T00:37:00+09:00,0.8,�k��,1.4,���k��,-2,66.9,0,0,0,0
2021-01-11T00:38:00+09:00,0.9,�k��,1.7,�k��,-2,67.8,0,0,0,0
2021-01-11T00:39:00+09:00,0.9,�k��,1.7,�k��,-1.9,68.6,0,0,0,0
2021-01-11T00:40:00+09:00,0.9,�k��,1.7,�k��,-1.8,68.9,0,0,0,0
2021-01-11T00:41:00+09:00,0.8,�k��,1.7,�k��,-1.8,68.7,0,0,0,0
2021-01-11T00:42:00+09:00,0.8,�k�k��,1.7,�k��,-1.8,68.1,0,0,0,0
2021-01-11T00:43:00+09:00,0.9,�k�k��,1.7,�k��,-1.7,68.3,0,0,0,0
2021-01-11T00:44:00+09:00,0.9,�k��,1.7,�k��,-1.8,67.9,0,0,0,0
2021-01-11T00:45:00+09:00,1,�k��,1.9,�k�k��,-1.7,67.7,0,0,0,0
2021-01-11T00:46:00+09:00,1,�k��,1.9,�k�k��,-1.8,67.4,0,0,0,0
2021-01-11T00:47:00+09:00,1.1,�k��,2,���k��,-1.9,67.2,0,0,0,0
2021-01-11T00:48:00+09:00,1.1,�k��,2.2,�k��,-1.9,67.3,0,0,0,0
2021-01-11T00:49:00+09:00,1.2,�k��,2.2,�k��,-1.8,67.8,0,0,0,0
2021-01-11T00:50:00+09:00,1.2,�k��,2.2,�k��,-1.8,67.7,0,0,0,0
2021-01-11T00:51:00+09:00,1.2,�k��,2.2,�k��,-2,67,0,0,0,0
2021-01-11T00:52:00+09:00,1.3,���k��,2.2,�k��,-2.2,67.1,0,0,0,0
2021-01-11T00:53:00+09:00,1.4,���k��,2.2,�k��,-2.2,67.9,0,0,0,0
2021-01-11T00:54:00+09:00,1.4,���k��,2.2,�k��,-2.2,68.8,0,0,0,0
2021-01-11T00:55:00+09:00,1.4,���k��,2.2,�k��,-2.5,68.8,0,0,0,0
2021-01-11T00:56:00+09:00,1.3,���k��,2.2,�k��,-2.4,69.9,0,0,0,0
2021-01-11T00:57:00+09:00,1.2,���k��,2.2,�k��,-2.3,71.4,0,0,0,0
2021-01-11T00:58:00+09:00,1.1,���k��,1.9,�k��,-2.2,71.5,0,0,0,0
2021-01-11T00:59:00+09:00,1,���k��,1.8,��,-2.2,71.2,0,0,0,0
2021-01-11T01:00:00+09:00,0.9,�k��,1.8,��,-2.3,70.9,0,0,0,0
2021-01-11T01:01:00+09:00,0.9,�k��,1.8,��,-2.3,70.9,0,0,0,0
2021-01-11T01:02:00+09:00,0.9,�k�k��,1.8,��,-2.3,71.4,0,0,0,0
2021-01-11T01:03:00+09:00,0.8,�k�k��,1.8,��,-2.2,71.1,0,0,0,0
2021-01-11T01:04:00+09:00,0.8,�k,1.5,�k,-2.3,70.5,0,0,0,0
2021-01-11T01:05:00+09:00,0.8,�k,1.7,�k,-2.4,70.5,0,0,0,0
2021-01-11T01:06:00+09:00,0.8,�k,1.7,�k,-2.3,71.1,0,0,0,0
2021-01-11T01:07:00+09:00,0.9,�k,1.7,�k,-2.3,71.3,0,0,0,0
2021-01-11T01:08:00+09:00,1,�k,2.2,�k�k��,-2.1,71.3,0,0,0,0
2021-01-11T01:09:00+09:00,1.1,�k,2.7,�k�k��,-2,70.6,0,0,0,0
2021-01-11T01:10:00+09:00,1.2,�k,2.7,�k�k��,-1.8,69.7,0,0,0,0
2021-01-11T01:11:00+09:00,1.1,�k,2.7,�k�k��,-1.8,69.1,0,0,0,0
2021-01-11T01:12:00+09:00,1.1,�k,2.7,�k�k��,-1.9,68.6,0,0,0,0
2021-01-11T01:13:00+09:00,1,�k,2.7,�k�k��,-1.9,68.4,0,0,0,0
2021-01-11T01:14:00+09:00,1,�k,2.7,�k�k��,-2,68.5,0,0,0,0
2021-01-11T01:15:00+09:00,0.9,�k,2.7,�k�k��,-2,68.7,0,0,0,0
2021-01-11T01:16:00+09:00,0.8,�k�k��,2.7,�k�k��,-2,68.9,0,0,0,0
2021-01-11T01:17:00+09:00,0.6,�k�k��,2.7,�k�k��,-2,69,0,0,0,0
2021-01-11T01:18:00+09:00,0.5,�k��,2.7,�k�k��,-2,69.2,0,0,0,0
2021-01-11T01:19:00+09:00,0.3,�k��,2,�k�k��,-2,69.1,0,0,0,0
2021-01-11T01:20:00+09:00,0.2,�É�,1.4,�k��,-2.1,68.5,0,0,0,0
2021-01-11T01:21:00+09:00,0.2,�É�,0.7,�k�k��,-2.2,68.6,0,0,0,0
2021-01-11T01:22:00+09:00,0.2,�É�,0.7,�k�k��,-2.3,69.2,0,0,0,0
2021-01-11T01:23:00+09:00,0.2,�É�,0.6,�k��,-2.4,70,0,0,0,0
2021-01-11T01:24:00+09:00,0.2,�É�,0.9,�k�k��,-2.4,70.3,0,0,0,0
2021-01-11T01:25:00+09:00,0.2,�É�,0.9,�k�k��,-2.6,70.2,0,0,0,0
2021-01-11T01:26:00+09:00,0.3,�k,0.9,�k�k��,-2.7,70.5,0,0,0,0
2021-01-11T01:27:00+09:00,0.4,�k�k��,0.9,�k�k��,-2.7,71,0,0,0,0
2021-01-11T01:28:00+09:00,0.4,�k�k��,0.9,�k�k��,-2.6,72,0,0,0,0
2021-01-11T01:29:00+09:00,0.4,�k,0.9,�k�k��,-2.6,72.3,0,0,0,0
2021-01-11T01:30:00+09:00,0.5,�k,0.9,�k�k��,-2.5,72.7,0,0,0,0
2021-01-11T01:31:00+09:00,0.5,�k�k��,0.9,�k�k��,-2.6,72.8,0,0,0,0
2021-01-11T01:32:00+09:00,0.5,�k,0.9,�k�k��,-2.5,72.9,0,0,0,0
2021-01-11T01:33:00+09:00,0.6,�k,1.2,�k�k��,-2.5,73.3,0,0,0,0
2021-01-11T01:34:00+09:00,0.7,�k,2.2,�k��,-2.4,73.3,0,0,0,0
2021-01-11T01:35:00+09:00,0.8,�k,2.2,�k��,-2.2,73.4,0,0,0,0
2021-01-11T01:36:00+09:00,0.8,�k,2.2,�k��,-2,72.9,0,0,0,0
2021-01-11T01:37:00+09:00,0.8,�k�k��,2.2,�k��,-2,71.8,0,0,0,0
2021-01-11T01:38:00+09:00,0.9,�k,2.2,�k��,-2,71.2,0,0,0,0
2021-01-11T01:39:00+09:00,1,�k,2.2,�k��,-1.9,71.1,0,0,0,0
2021-01-11T01:40:00+09:00,1.1,�k,2.5,�k�k��,-1.9,70.8,0,0,0,0
2021-01-11T01:41:00+09:00,1.3,�k�k��,3.5,�k�k��,-1.9,70.6,0,0,0,0
2021-01-11T01:42:00+09:00,1.5,�k�k��,3.5,�k�k��,-1.9,70.6,0,0,0,0
2021-01-11T01:43:00+09:00,1.7,�k�k��,3.5,�k�k��,-1.8,70.5,0,0,0,0
2021-01-11T01:44:00+09:00,1.8,�k�k��,3.6,�k��,-1.7,70.6,0,0,0,0
2021-01-11T01:45:00+09:00,1.8,�k�k��,3.6,�k��,-1.7,70.5,0,0,0,0
2021-01-11T01:46:00+09:00,1.9,�k�k��,3.6,�k��,-1.7,70.4,0,0,0,0
2021-01-11T01:47:00+09:00,1.9,�k�k��,3.6,�k��,-1.8,70.7,0,0,0,0
2021-01-11T01:48:00+09:00,1.8,�k�k��,3.6,�k��,-1.8,71.1,0,0,0,0
2021-01-11T01:49:00+09:00,1.7,�k�k��,3.6,�k��,-1.8,71.8,0,0,0,0
2021-01-11T01:50:00+09:00,1.6,�k��,3.6,�k��,-1.7,72.2,0,0,0,0
2021-01-11T01:51:00+09:00,1.5,�k��,3.6,�k��,-1.7,72.4,0,0,0,0
2021-01-11T01:52:00+09:00,1.2,�k��,3.6,�k��,-1.8,72.7,0,0,0,0
2021-01-11T01:53:00+09:00,1,�k��,3.6,�k��,-1.7,72.8,0,0,0,0
2021-01-11T01:54:00+09:00,0.8,�k��,3,�k��,-1.6,73.7,0,0,0,0
2021-01-11T01:55:00+09:00,0.7,�k��,1.8,�k��,-1.6,73.7,0,0,0,0
2021-01-11T01:56:00+09:00,0.6,�k��,1.7,��,-1.6,73.9,0,0,0,0
2021-01-11T01:57:00+09:00,0.7,���k��,1.7,��,-1.7,73.5,0,0,0,0
2021-01-11T01:58:00+09:00,0.8,���k��,2.6,���k��,-1.8,72.9,0,0,0,0
2021-01-11T01:59:00+09:00,0.9,���k��,2.6,���k��,-1.8,73.6,0,0,0,0
2021-01-11T02:00:00+09:00,0.9,���k��,2.6,���k��,-1.9,73.9,0,0,0,0
2021-01-11T02:01:00+09:00,1,�k��,2.6,���k��,-1.9,74.2,0,0,0,0
2021-01-11T02:02:00+09:00,1,�k��,2.6,���k��,-1.8,75,0,0,0,0
2021-01-11T02:03:00+09:00,1,�k��,2.6,���k��,-1.8,74.7,0,0,0,0
2021-01-11T02:04:00+09:00,1.1,�k��,2.6,���k��,-1.8,74.5,0,0,0,0
2021-01-11T02:05:00+09:00,1,�k��,2.6,���k��,-1.8,74.3,0,0,0,0
2021-01-11T02:06:00+09:00,1,�k��,2.6,���k��,-1.9,73.9,0,0,0,0
2021-01-11T02:07:00+09:00,1,�k�k��,2.6,���k��,-2,73.9,0,0,0,0
2021-01-11T02:08:00+09:00,0.9,�k�k��,2.6,��,-2.1,73.8,0,0,0,0
2021-01-11T02:09:00+09:00,0.8,�k�k��,1.5,�k��,-2.1,73.9,0,0,0,0
2021-01-11T02:10:00+09:00,0.7,�k�k��,1.5,�k��,-2.1,74.8,0,0,0,0
2021-01-11T02:11:00+09:00,0.7,�k,1.3,�k�k��,-2.2,75.1,0,0,0,0
2021-01-11T02:12:00+09:00,0.7,�k,1.3,�k�k��,-2.3,75.4,0,0,0,0
2021-01-11T02:13:00+09:00,0.7,�k�k��,1.3,�k�k��,-2.4,75.2,0,0,0,0
2021-01-11T02:14:00+09:00,0.7,�k��,1.2,�쐼,-2.7,74.8,0,0,0,0
2021-01-11T02:15:00+09:00,0.7,���k��,1.2,�쐼,-2.6,75.7,0,0,0,0
2021-01-11T02:16:00+09:00,0.7,��,1.2,�쐼,-2.5,77.2,0,0,0,0
2021-01-11T02:17:00+09:00,0.7,���쐼,1.2,�쐼,-2.6,76.6,0,0,0,0
2021-01-11T02:18:00+09:00,0.7,���쐼,1.2,�쐼,-2.6,77.1,0,0,0,0
2021-01-11T02:19:00+09:00,0.7,���쐼,1.2,�쐼,-2.5,77.5,0,0,0,0
2021-01-11T02:20:00+09:00,0.8,���쐼,1.3,���k��,-2.3,78.1,0,0,0,0
2021-01-11T02:21:00+09:00,0.7,���쐼,1.3,���k��,-2.3,78.2,0,0,0,0
2021-01-11T02:22:00+09:00,0.7,���쐼,1.3,���k��,-2.4,77.6,0,0,0,0
2021-01-11T02:23:00+09:00,0.6,��,1.3,���k��,-2.5,76.8,0,0,0,0
2021-01-11T02:24:00+09:00,0.7,���k��,1.4,�k�k��,-2.6,76.8,0,0,0,0
2021-01-11T02:25:00+09:00,0.7,�k��,1.4,�k�k��,-2.6,77.3,0,0,0,0
2021-01-11T02:26:00+09:00,0.7,�k�k��,1.4,�k�k��,-2.6,77.9,0,0,0,0
2021-01-11T02:27:00+09:00,0.7,�k�k��,1.4,�k�k��,-2.5,78,0,0,0,0
2021-01-11T02:28:00+09:00,0.7,�k�k��,1.4,�k�k��,-2.5,78.5,0,0,0,0
2021-01-11T02:29:00+09:00,0.7,�k,1.4,�k�k��,-2.4,78.6,0,0,0,0
2021-01-11T02:30:00+09:00,0.6,�k,1.4,�k�k��,-2.4,78.4,0,0,0,0
2021-01-11T02:31:00+09:00,0.6,�k,1.4,�k�k��,-2.4,77.7,0,0,0,0
2021-01-11T02:32:00+09:00,0.6,�k,1.4,�k�k��,-2.5,77.4,0,0,0,0
2021-01-11T02:33:00+09:00,0.6,�k,1.4,�k�k��,-2.5,77.5,0,0,0,0
2021-01-11T02:34:00+09:00,0.5,�k,1.4,�k��,-2.5,77.8,0,0,0,0
2021-01-11T02:35:00+09:00,0.4,�k,1.2,�k�k��,-2.3,78,0,0,0,0
2021-01-11T02:36:00+09:00,0.4,�k,1.2,�k�k��,-2.3,77.8,0,0,0,0
2021-01-11T02:37:00+09:00,0.4,�k,1.2,�k�k��,-2.3,77.3,0,0,0,0
2021-01-11T02:38:00+09:00,0.4,�k�k��,1.1,���k��,-2.4,77,0,0,0,0
2021-01-11T02:39:00+09:00,0.4,�k�k��,1.1,���k��,-2.4,76.6,0,0,0,0
2021-01-11T02:40:00+09:00,0.5,�k��,1.1,���k��,-2.4,76.9,0,0,0,0
2021-01-11T02:41:00+09:00,0.6,�k��,1.1,���k��,-2.4,77,0,0,0,0
2021-01-11T02:42:00+09:00,0.6,�k��,1.1,���k��,-2.4,77.2,0,0,0,0
2021-01-11T02:43:00+09:00,0.6,�k��,1.1,���k��,-2.2,78.1,0,0,0,0
2021-01-11T02:44:00+09:00,0.6,���k��,1.1,���k��,-2.4,77.2,0,0,0,0
2021-01-11T02:45:00+09:00,0.7,���k��,1.1,���k��,-2.5,77,0,0,0,0
2021-01-11T02:46:00+09:00,0.6,���k��,1.1,���k��,-2.6,76.8,0,0,0,0
2021-01-11T02:47:00+09:00,0.6,��,1.1,���k��,-2.7,77,0,0,0,0
2021-01-11T02:48:00+09:00,0.5,��,1.1,�k�k��,-2.8,77,0,0,0,0
2021-01-11T02:49:00+09:00,0.4,���쓌,1.1,�k�k��,-2.8,77.7,0,0,0,0
2021-01-11T02:50:00+09:00,0.4,�쓌,1.1,�k�k��,-2.8,78.3,0,0,0,0
2021-01-11T02:51:00+09:00,0.3,��쓌,1.1,�k�k��,-2.8,78.5,0,0,0,0
2021-01-11T02:52:00+09:00,0.3,��,0.9,�k��,-2.9,78.6,0,0,0,0
2021-01-11T02:53:00+09:00,0.3,��,0.9,�k��,-2.8,78.9,0,0,0,0
2021-01-11T02:54:00+09:00,0.2,�É�,0.7,�쓌,-2.7,79.6,0,0,0,0
2021-01-11T02:55:00+09:00,0.2,�É�,0.5,��,-2.7,79.6,0,0,0,0
2021-01-11T02:56:00+09:00,0.2,�É�,0.5,��,-2.7,79.4,0,0,0,0
2021-01-11T02:57:00+09:00,0.3,��쐼,0.6,��쐼,-2.6,79.4,0,0,0,0
2021-01-11T02:58:00+09:00,0.3,��쐼,0.7,�쐼,-2.7,79.2,0,0,0,0
2021-01-11T02:59:00+09:00,0.4,��쐼,1.4,�쐼,-3.1,77.8,0,0,0,0
2021-01-11T03:00:00+09:00,0.5,��쐼,1.4,�쐼,-3.4,76.7,0,0,0,0
2021-01-11T03:01:00+09:00,0.5,��쐼,1.4,�쐼,-3.4,78.3,0,0,0,0
2021-01-11T03:02:00+09:00,0.5,��쐼,1.4,�쐼,-3.4,79.5,0,0,0,0
2021-01-11T03:03:00+09:00,0.6,�쐼,1.4,�쐼,-3.3,80.7,0,0,0,0
2021-01-11T03:04:00+09:00,0.7,�쐼,1.4,�쐼,-3.4,81.2,0,0,0,0
2021-01-11T03:05:00+09:00,0.7,�쐼,1.4,�쐼,-3.3,81.6,0,0,0,0
2021-01-11T03:06:00+09:00,0.7,���쐼,1.4,�쐼,-3.2,82.2,0,0,0,0
2021-01-11T03:07:00+09:00,0.7,���쐼,1.4,�쐼,-3.2,82.3,0,0,0,0
2021-01-11T03:08:00+09:00,0.6,��,1.4,�쐼,-3.1,82.1,0,0,0,0
2021-01-11T03:09:00+09:00,0.5,���k��,1.3,�쐼,-3.2,82.2,0,0,0,0
2021-01-11T03:10:00+09:00,0.4,���k��,1,�쐼,-3.2,82.1,0,0,0,0
2021-01-11T03:11:00+09:00,0.4,���k��,1,�쐼,-3,82.5,0,0,0,0
2021-01-11T03:12:00+09:00,0.3,�k��,1,�쐼,-3.1,82.2,0,0,0,0
2021-01-11T03:13:00+09:00,0.3,�k�k��,0.9,���쐼,-3.2,80.9,0,0,0,0
2021-01-11T03:14:00+09:00,0.2,�É�,0.7,�k��,-3.2,80.8,0,0,0,0
2021-01-11T03:15:00+09:00,0.2,�É�,0.7,�k��,-3.2,80.8,0,0,0,0
2021-01-11T03:16:00+09:00,0.2,�É�,0.7,��쓌,-3.2,80.6,0,0,0,0
2021-01-11T03:17:00+09:00,0.2,�É�,0.7,��쓌,-3.2,80.5,0,0,0,0
2021-01-11T03:18:00+09:00,0.2,�É�,0.7,��쓌,-3.2,80.5,0,0,0,0
2021-01-11T03:19:00+09:00,0.3,��쓌,0.7,��쓌,-3.3,80.4,0,0,0,0
2021-01-11T03:20:00+09:00,0.3,��쓌,0.7,��쓌,-3.3,80.4,0,0,0,0
2021-01-11T03:21:00+09:00,0.3,��쓌,0.7,��쓌,-3.3,80.4,0,0,0,0
2021-01-11T03:22:00+09:00,0.3,��쓌,0.7,��쓌,-3.4,80.2,0,0,0,0
2021-01-11T03:23:00+09:00,0.3,�쓌,0.7,��쓌,-3.4,80.2,0,0,0,0
2021-01-11T03:24:00+09:00,0.3,�쓌,0.7,��쓌,-3.3,80.5,0,0,0,0
2021-01-11T03:25:00+09:00,0.3,���쓌,0.7,��쓌,-3.4,80.6,0,0,0,0
2021-01-11T03:26:00+09:00,0.3,���쓌,0.7,���쐼,-3.3,80.8,0,0,0,0
2021-01-11T03:27:00+09:00,0.3,�쓌,1,��쐼,-3.1,82.2,0,0,0,0
2021-01-11T03:28:00+09:00,0.4,��쓌,1,��쐼,-3.1,82.1,0,0,0,0
2021-01-11T03:29:00+09:00,0.5,��쐼,1.5,�쐼,-3.2,81,0,0,0,0
2021-01-11T03:30:00+09:00,0.5,���쐼,1.5,�쐼,-3.4,80,0,0,0,0
2021-01-11T03:31:00+09:00,0.6,���쐼,1.5,�쐼,-3.5,79.6,0,0,0,0
2021-01-11T03:32:00+09:00,0.7,���쐼,1.5,�쐼,-3.4,79.8,0,0,0,0
2021-01-11T03:33:00+09:00,0.7,�쐼,1.5,�쐼,-3.6,80.2,0,0,0,0
2021-01-11T03:34:00+09:00,0.8,�쐼,1.5,�쐼,-3.9,78.9,0,0,0,0
2021-01-11T03:35:00+09:00,0.9,�쐼,1.5,�쐼,-4.1,78.6,0,0,0,0
2021-01-11T03:36:00+09:00,0.8,�쐼,1.5,�쐼,-4.1,79.7,0,0,0,0
2021-01-11T03:37:00+09:00,0.8,�쐼,1.5,�쐼,-3.9,80.9,0,0,0,0
2021-01-11T03:38:00+09:00,0.8,��쐼,1.5,�쐼,-4.1,81.3,0,0,0,0
2021-01-11T03:39:00+09:00,0.8,��쐼,1.5,��쐼,-4.1,80.6,0,0,0,0
2021-01-11T03:40:00+09:00,0.8,��,1.5,��쐼,-4,81.4,0,0,0,0
2021-01-11T03:41:00+09:00,0.7,��쓌,1.3,��,-3.8,82.3,0,0,0,0
2021-01-11T03:42:00+09:00,0.7,��,1.3,��,-3.6,83.1,0,0,0,0
2021-01-11T03:43:00+09:00,0.6,���k��,1.3,��,-3.5,83.3,0,0,0,0
2021-01-11T03:44:00+09:00,0.6,���k��,1.3,��,-3.4,82.9,0,0,0,0
2021-01-11T03:45:00+09:00,0.6,��,1.3,��,-3.5,82.6,0,0,0,0
2021-01-11T03:46:00+09:00,0.6,��,1.3,��,-3.6,81.9,0,0,0,0
2021-01-11T03:47:00+09:00,0.7,��,1.3,��,-3.9,80.6,0,0,0,0
2021-01-11T03:48:00+09:00,0.7,���쓌,1.4,��쐼,-4,80,0,0,0,0
2021-01-11T03:49:00+09:00,0.7,��쓌,1.4,��쐼,-4.1,80.3,0,0,0,0
2021-01-11T03:50:00+09:00,0.7,��,1.4,��쐼,-4.1,80.5,0,0,0,0
2021-01-11T03:51:00+09:00,0.8,��쐼,1.4,��쐼,-4.1,81,0,0,0,0
2021-01-11T03:52:00+09:00,0.8,��쐼,1.4,��쐼,-4,81.5,0,0,0,0
2021-01-11T03:53:00+09:00,0.8,��쐼,1.4,��쐼,-3.8,82.3,0,0,0,0
2021-01-11T03:54:00+09:00,0.7,��쐼,1.4,��쐼,-3.7,82.9,0,0,0,0
2021-01-11T03:55:00+09:00,0.7,��쐼,1.4,��쐼,-3.7,82.3,0,0,0,0
2021-01-11T03:56:00+09:00,0.7,��쐼,1.4,��쐼,-3.9,81.4,0,0,0,0
2021-01-11T03:57:00+09:00,0.7,��쐼,1.4,��쐼,-4.1,80.3,0,0,0,0
2021-01-11T03:58:00+09:00,0.7,��,1.3,��,-4,80.7,0,0,0,0
2021-01-11T03:59:00+09:00,0.6,�쓌,1.3,��,-3.9,81,0,0,0,0
2021-01-11T04:00:00+09:00,0.6,��,1.3,��,-3.8,81.6,0,0,0,0
2021-01-11T04:01:00+09:00,0.5,���k��,1.3,��,-3.8,81.8,0,0,0,0
2021-01-11T04:02:00+09:00,0.5,���k��,1.3,��,-3.8,81.6,0,0,0,0
2021-01-11T04:03:00+09:00,0.6,��,1.6,��쓌,-4,80.8,0,0,0,0
2021-01-11T04:04:00+09:00,0.6,��,1.6,��쓌,-4,80.8,0,0,0,0
2021-01-11T04:05:00+09:00,0.6,��,1.6,��쓌,-3.9,81.3,0,0,0,0
2021-01-11T04:06:00+09:00,0.5,���쓌,1.6,��쓌,-3.9,81.6,0,0,0,0
2021-01-11T04:07:00+09:00,0.4,���쓌,1.6,��쓌,-3.8,82.2,0,0,0,0
2021-01-11T04:08:00+09:00,0.3,�쓌,1.6,��쓌,-3.9,81.9,0,0,0,0
2021-01-11T04:09:00+09:00,0.3,�쓌,1.6,��쓌,-3.9,81.8,0,0,0,0
2021-01-11T04:10:00+09:00,0.3,�쓌,1.6,��쓌,-3.9,82.1,0,0,0,0
2021-01-11T04:11:00+09:00,0.3,��쓌,1.6,��쓌,-3.8,82.2,0,0,0,0
2021-01-11T04:12:00+09:00,0.4,�쓌,1.6,��쓌,-3.7,82.6,0,0,0,0
2021-01-11T04:13:00+09:00,0.3,���쓌,1.4,��,-3.7,82.8,0,0,0,0
2021-01-11T04:14:00+09:00,0.3,�k,1,�k�k��,-3.7,82.4,0,0,0,0
2021-01-11T04:15:00+09:00,0.3,�k,1,�k�k��,-3.7,82.5,0,0,0,0
2021-01-11T04:16:00+09:00,0.3,�k,1,�k�k��,-3.8,81.3,0,0,0,0
2021-01-11T04:17:00+09:00,0.3,�k,1,�k�k��,-3.9,80.9,0,0,0,0
2021-01-11T04:18:00+09:00,0.4,�k,1,�k�k��,-4,80.1,0,0,0,0
2021-01-11T04:19:00+09:00,0.4,�k,1,�k�k��,-4.1,79.8,0,0,0,0
2021-01-11T04:20:00+09:00,0.4,�k,1.1,�k��,-3.9,80.6,0,0,0,0
2021-01-11T04:21:00+09:00,0.4,�k,1.2,�k��,-3.8,81.8,0,0,0,0
2021-01-11T04:22:00+09:00,0.4,�k�k��,1.2,�k��,-3.7,82.2,0,0,0,0
2021-01-11T04:23:00+09:00,0.4,�k�k��,1.2,�k��,-3.7,82.1,0,0,0,0
2021-01-11T04:24:00+09:00,0.4,�k��,1.2,�k��,-3.5,81.9,0,0,0,0
2021-01-11T04:25:00+09:00,0.5,���k��,1.2,�k��,-3.6,81.9,0,0,0,0
2021-01-11T04:26:00+09:00,0.5,��,1.2,�k��,-3.8,80.1,0,0,0,0
2021-01-11T04:27:00+09:00,0.5,��,1.2,�k��,-3.9,79.9,0,0,0,0
2021-01-11T04:28:00+09:00,0.5,��,1.2,�k��,-3.7,80.5,0,0,0,0
2021-01-11T04:29:00+09:00,0.5,��,1.2,�k��,-3.9,80,0,0,0,0
2021-01-11T04:30:00+09:00,0.4,��,1.2,�k��,-3.7,80.3,0,0,0,0
2021-01-11T04:31:00+09:00,0.3,���쐼,0.8,�쐼,-3.6,81.1,0,0,0,0
2021-01-11T04:32:00+09:00,0.3,���쐼,0.8,�쐼,-3.3,81.9,0,0,0,0
2021-01-11T04:33:00+09:00,0.3,�쐼,0.8,�쐼,-3.8,79.9,0,0,0,0
2021-01-11T04:34:00+09:00,0.3,�쐼,0.8,�쐼,-4.1,78.3,0,0,0,0
2021-01-11T04:35:00+09:00,0.3,�쐼,0.8,��쐼,-4.4,77.2,0,0,0,0
2021-01-11T04:36:00+09:00,0.3,��쐼,0.8,��쐼,-4.3,78,0,0,0,0
2021-01-11T04:37:00+09:00,0.3,��쐼,0.8,��쐼,-4.3,79.4,0,0,0,0
2021-01-11T04:38:00+09:00,0.3,��쐼,0.8,��쐼,-4.2,80.1,0,0,0,0
2021-01-11T04:39:00+09:00,0.3,��쐼,0.8,��쐼,-4,81.6,0,0,0,0
2021-01-11T04:40:00+09:00,0.3,��쐼,0.8,��쐼,-3.9,82.5,0,0,0,0
2021-01-11T04:41:00+09:00,0.3,��쐼,0.8,��쐼,-3.9,82,0,0,0,0
2021-01-11T04:42:00+09:00,0.3,���쐼,0.8,��쐼,-3.9,81.5,0,0,0,0
2021-01-11T04:43:00+09:00,0.3,���k��,0.8,�k��,-3.9,81.1,0,0,0,0
2021-01-11T04:44:00+09:00,0.4,���k��,0.8,�k��,-3.9,81.5,0,0,0,0
2021-01-11T04:45:00+09:00,0.4,���k��,1,�k��,-3.9,81.6,0,0,0,0
2021-01-11T04:46:00+09:00,0.4,���k��,1,�k��,-3.9,81.8,0,0,0,0
2021-01-11T04:47:00+09:00,0.5,���k��,1,�k��,-4.1,81.4,0,0,0,0
2021-01-11T04:48:00+09:00,0.5,�k��,1,�k��,-4.2,80.5,0,0,0,0
2021-01-11T04:49:00+09:00,0.4,�k��,1,�k��,-4.2,80.6,0,0,0,0
2021-01-11T04:50:00+09:00,0.4,�k��,1,�k��,-4.1,81.4,0,0,0,0
2021-01-11T04:51:00+09:00,0.4,�k�k��,1,�k��,-4.2,81.5,0,0,0,0
2021-01-11T04:52:00+09:00,0.4,�k�k��,1,�k��,-4.1,80.9,0,0,0,0
2021-01-11T04:53:00+09:00,0.4,�k,1,�k��,-4.2,81.2,0,0,0,0
2021-01-11T04:54:00+09:00,0.4,�k�k��,1,�k��,-4.3,80.2,0,0,0,0
2021-01-11T04:55:00+09:00,0.4,�k�k��,1.4,���k��,-4.5,79.6,0,0,0,0
2021-01-11T04:56:00+09:00,0.5,�k��,1.6,��,-4.6,79,0,0,0,0
2021-01-11T04:57:00+09:00,0.6,�k��,2,��,-4.5,80.1,0,0,0,0
2021-01-11T04:58:00+09:00,0.7,���k��,2,��,-4.3,80.9,0,0,0,0
2021-01-11T04:59:00+09:00,0.7,���k��,2,��,-4.3,81.7,0,0,0,0
2021-01-11T05:00:00+09:00,0.8,���k��,2,��,-4.1,82.6,0,0,0,0
2021-01-11T05:01:00+09:00,0.8,���k��,2,��,-3.9,83.8,0,0,0,0
2021-01-11T05:02:00+09:00,0.8,���k��,2,��,-3.9,84.1,0,0,0,0
2021-01-11T05:03:00+09:00,0.8,�k��,2,��,-3.9,83.7,0,0,0,0
2021-01-11T05:04:00+09:00,0.8,�k�k��,2,��,-3.9,83.7,0,0,0,0
2021-01-11T05:05:00+09:00,0.8,�k�k��,2,��,-3.9,83.6,0,0,0,0
2021-01-11T05:06:00+09:00,0.7,�k��,2,��,-3.9,83.4,0,0,0,0
2021-01-11T05:07:00+09:00,0.6,���k��,1.6,��,-3.9,83.5,0,0,0,0
2021-01-11T05:08:00+09:00,0.5,���k��,1.2,���쐼,-3.9,83.2,0,0,0,0
2021-01-11T05:09:00+09:00,0.5,���k��,1.2,���쐼,-3.9,82.8,0,0,0,0
2021-01-11T05:10:00+09:00,0.5,��,1.2,���쐼,-4,82.6,0,0,0,0
2021-01-11T05:11:00+09:00,0.5,��,1.2,���쐼,-3.9,82.7,0,0,0,0
2021-01-11T05:12:00+09:00,0.6,��,1.3,�쐼,-3.9,82.5,0,0,0,0
2021-01-11T05:13:00+09:00,0.7,���쐼,1.3,�쐼,-4.1,82,0,0,0,0
2021-01-11T05:14:00+09:00,0.7,���쐼,1.3,�쐼,-4.2,81.5,0,0,0,0
2021-01-11T05:15:00+09:00,0.7,���쐼,1.3,�쐼,-4.2,81.3,0,0,0,0
2021-01-11T05:16:00+09:00,0.7,�쐼,1.3,�쐼,-4.3,81.4,0,0,0,0
2021-01-11T05:17:00+09:00,0.7,�쐼,1.3,�쐼,-4.2,81.5,0,0,0,0
2021-01-11T05:18:00+09:00,0.7,�쐼,1.3,�쐼,-4.1,82,0,0,0,0
2021-01-11T05:19:00+09:00,0.7,�쐼,1.3,�쐼,-4.1,82.2,0,0,0,0
2021-01-11T05:20:00+09:00,0.7,��,1.3,�쐼,-4.1,81.9,0,0,0,0
2021-01-11T05:21:00+09:00,0.7,��쓌,1.3,�쐼,-4.2,81.7,0,0,0,0
2021-01-11T05:22:00+09:00,0.7,�쓌,1.3,��쐼,-4.2,81.2,0,0,0,0
2021-01-11T05:23:00+09:00,0.7,���쓌,1.3,��쐼,-4.1,81.6,0,0,0,0
2021-01-11T05:24:00+09:00,0.6,��,1.2,��,-4.1,81.8,0,0,0,0
2021-01-11T05:25:00+09:00,0.6,��,1,���쓌,-4,82.1,0,0,0,0
2021-01-11T05:26:00+09:00,0.6,���k��,1,���쓌,-4,82.1,0,0,0,0
2021-01-11T05:27:00+09:00,0.6,��,1,���쓌,-4,82.1,0,0,0,0
2021-01-11T05:28:00+09:00,0.7,��,1,���쓌,-3.9,82.3,0,0,0,0
2021-01-11T05:29:00+09:00,0.6,��,1,���쓌,-3.9,82.4,0,0,0,0
2021-01-11T05:30:00+09:00,0.6,��,1,���쓌,-3.9,82.3,0,0,0,0
2021-01-11T05:31:00+09:00,0.6,��,1,��,-3.9,82.4,0,0,0,0
2021-01-11T05:32:00+09:00,0.5,��,1,��,-3.9,82.6,0,0,0,0
2021-01-11T05:33:00+09:00,0.6,��,1.5,���k��,-3.8,82.8,0,0,0,0
2021-01-11T05:34:00+09:00,0.6,��,1.6,���k��,-3.8,82.7,0,0,0,0
2021-01-11T05:35:00+09:00,0.7,��,1.6,���k��,-3.7,82.9,0,0,0,0
2021-01-11T05:36:00+09:00,0.7,�k��,1.6,���k��,-3.7,83.1,0,0,0,0
2021-01-11T05:37:00+09:00,0.6,�k�k��,1.6,���k��,-3.6,82.7,0,0,0,0
2021-01-11T05:38:00+09:00,0.6,�k��,1.6,���k��,-3.6,82.4,0,0,0,0
2021-01-11T05:39:00+09:00,0.6,���k��,1.6,���k��,-3.6,82.1,0,0,0,0
2021-01-11T05:40:00+09:00,0.6,���k��,1.6,���k��,-3.5,81.6,0,0,0,0
2021-01-11T05:41:00+09:00,0.6,���k��,1.6,���k��,-3.5,81.6,0,0,0,0
2021-01-11T05:42:00+09:00,0.6,��,1.6,���k��,-3.3,81.8,0,0,0,0
2021-01-11T05:43:00+09:00,0.5,��,1.6,���k��,-3.3,81.5,0,0,0,0
2021-01-11T05:44:00+09:00,0.4,��,1.4,���k��,-3.4,80.7,0,0,0,0
2021-01-11T05:45:00+09:00,0.3,��,0.9,��,-3.4,80.4,0,0,0,0
2021-01-11T05:46:00+09:00,0.3,��,0.9,��,-3.5,80.6,0,0,0,0
2021-01-11T05:47:00+09:00,0.3,���쐼,0.9,��,-3.6,80.1,0,0,0,0
2021-01-11T05:48:00+09:00,0.3,���쐼,0.7,��,-3.7,80.4,0,0,0,0
2021-01-11T05:49:00+09:00,0.2,�É�,0.6,��쐼,-3.6,80.9,0,0,0,0
2021-01-11T05:50:00+09:00,0.2,�É�,0.6,��쐼,-3.6,81.2,0,0,0,0
2021-01-11T05:51:00+09:00,0.2,�É�,0.6,��쐼,-3.6,81.4,0,0,0,0
2021-01-11T05:52:00+09:00,0.2,�É�,0.6,��쐼,-3.6,81.4,0,0,0,0
2021-01-11T05:53:00+09:00,0.2,�É�,0.9,�k��,-3.5,81.6,0,0,0,0
2021-01-11T05:54:00+09:00,0.3,�쓌,1.2,���k��,-3.4,81.7,0,0,0,0
2021-01-11T05:55:00+09:00,0.4,���쓌,1.2,���k��,-3.4,81.9,0,0,0,0
2021-01-11T05:56:00+09:00,0.5,��,1.2,���k��,-3.4,81.8,0,0,0,0
2021-01-11T05:57:00+09:00,0.6,���k��,1.2,���k��,-3.4,81.5,0,0,0,0
2021-01-11T05:58:00+09:00,0.6,�k��,1.2,���k��,-3.4,81.3,0,0,0,0
2021-01-11T05:59:00+09:00,0.7,�k��,1.2,���k��,-3.4,81.3,0,0,0,0
2021-01-11T06:00:00+09:00,0.6,�k��,1.2,���k��,-3.4,81.1,0,0,0,0
2021-01-11T06:01:00+09:00,0.6,�k�k��,1.2,���k��,-3.4,81.1,0,0,0,0
2021-01-11T06:02:00+09:00,0.6,�k�k��,1.2,���k��,-3.3,81.4,0,0,0,0
2021-01-11T06:03:00+09:00,0.5,�k�k��,1.2,���k��,-3.4,81.1,0,0,0,0
2021-01-11T06:04:00+09:00,0.4,�k�k��,1.2,�k�k��,-3.4,80.8,0,0,0,0
2021-01-11T06:05:00+09:00,0.4,�k,1.2,�k�k��,-3.4,80.8,0,0,0,0
2021-01-11T06:06:00+09:00,0.3,�k,1.1,�k�k��,-3.4,81.2,0,0,0,0
2021-01-11T06:07:00+09:00,0.2,�É�,0.8,�k�k��,-3.4,81.3,0,0,0,0
2021-01-11T06:08:00+09:00,0.2,�É�,0.6,�k,-3.3,81.7,0,0,0,0
2021-01-11T06:09:00+09:00,0.2,�É�,0.8,�쐼,-3.5,81.1,0,0,0,0
2021-01-11T06:10:00+09:00,0.3,��,1,�쐼,-3.6,80.7,0,0,0,0
2021-01-11T06:11:00+09:00,0.4,���쐼,1.1,�쐼,-3.7,80.9,0,0,0,0
2021-01-11T06:12:00+09:00,0.5,���쐼,1.2,���쐼,-3.7,81.6,0,0,0,0
2021-01-11T06:13:00+09:00,0.6,�쐼,1.6,�쐼,-3.7,81.9,0,0,0,0
2021-01-11T06:14:00+09:00,0.7,�쐼,1.6,�쐼,-3.7,82.3,0,0,0,0
2021-01-11T06:15:00+09:00,0.8,�쐼,1.6,�쐼,-3.7,82.9,0,0,0,0
2021-01-11T06:16:00+09:00,0.8,�쐼,1.6,�쐼,-3.7,83.2,0,0,0,0
2021-01-11T06:17:00+09:00,0.8,�쐼,1.6,�쐼,-3.7,83.3,0,0,0,0
2021-01-11T06:18:00+09:00,0.9,�쐼,1.6,�쐼,-3.6,83.5,0,0,0,0
2021-01-11T06:19:00+09:00,0.9,�쐼,1.6,�쐼,-3.6,84,0,0,0,0
2021-01-11T06:20:00+09:00,0.9,�쐼,1.6,�쐼,-3.5,84.1,0,0,0,0
2021-01-11T06:21:00+09:00,0.9,�쐼,1.6,�쐼,-3.5,84,0,0,0,0
2021-01-11T06:22:00+09:00,0.8,��쐼,1.6,�쐼,-3.6,83.3,0,0,0,0
2021-01-11T06:23:00+09:00,0.8,��쐼,1.6,�쐼,-3.6,82.9,0,0,0,0
2021-01-11T06:24:00+09:00,0.7,��쐼,1.2,��쐼,-3.5,83,0,0,0,0
2021-01-11T06:25:00+09:00,0.7,��쐼,1.2,��쐼,-3.5,82.6,0,0,0,0
2021-01-11T06:26:00+09:00,0.7,��쐼,1.2,��쐼,-3.5,82.5,0,0,0,0
2021-01-11T06:27:00+09:00,0.7,��,1.3,��쐼,-3.5,82.3,0,0,0,0
2021-01-11T06:28:00+09:00,0.7,��,1.3,��쐼,-3.5,82.3,0,0,0,0
2021-01-11T06:29:00+09:00,0.7,��,1.3,��쐼,-3.4,82.4,0,0,0,0
2021-01-11T06:30:00+09:00,0.8,��,1.7,�쐼,-3.5,82.3,0,0,0,0